Regional Weather Roundup
Issued by NWS

Home | Current Version | Previous Version | Text Only | Print | Product List | Glossary Off
Versions: 1 2 3 4 5 6 7 8 9 10 11 12 13 14 15 16 17 18 19 20 21 22 23 24 25 26 27 28 29 30 31 32 33 34 35 36 37 38 39 40 41 42 43 44 45 46 47 48 49 50

000
ASUS43 KLSX 200507
RWRMO

WEATHER SUMMARY FOR MISSOURI
NATIONAL WEATHER SERVICE SPRINGFIELD MO
1100 PM CST FRI DEC 19 2014

NOTE: "FAIR" INDICATES FEW OR NO CLOUDS BELOW 12,000 FEET WITH NO
       SIGNIFICANT WEATHER AND/OR OBSTRUCTIONS TO VISIBILITY.
       CURRENT SKY AND/OR WEATHER CONDITIONS ARE NOT AVAILABLE FOR
       CHILLICOTHE AND FARMINGTON.

MOZ001>031-035>038-043-044-053-054-200600-
...NORTHERN AND WESTERN MISSOURI...

CITY           SKY/WX    TMP DP  RH WIND       PRES   REMARKS
KANSAS CTY INT DRZL/FOG  32  32 100 SW3       30.20S VSB 1
KANSAS C DTWN  CLOUDY    34  33  96 CALM      30.22R FOG
LEE`S SUMMIT   CLOUDY    34  34 100 CALM      30.21R FOG
ST JOSEPH      CLOUDY    31  29  92 W7        30.23R WCI  24
CHILLICOTHE      N/A     34  32  92 CALM      30.23S
KIRKSVILLE     CLOUDY    32  30  92 SE8       30.22F FOG     WCI  25

$$
MOZ066>068-077>081-088>096-101>105-200600-
...SOUTHWEST MISSOURI...

CITY           SKY/WX    TMP DP  RH WIND       PRES   REMARKS
SPRINGFIELD    LGT RAIN  37  36  96 S8        30.19S
JOPLIN         FOG       38  38 100 W3        30.21S VSB 1/4

$$
MOZ032>034-039>042-045>050-055>058-069>072-200600-
...CENTRAL MISSOURI...

CITY           SKY/WX    TMP DP  RH WIND       PRES   REMARKS
COLUMBIA       CLOUDY    35  32  88 SE6       30.23S
JEFFERSON CITY CLOUDY    36  32  85 SE5       30.25S
ROLLA          CLOUDY    34  31  88 S5        30.21R WCI  30
SEDALIA        CLOUDY    37  35  92 SE3       30.22S FOG
WHITEMAN AFB   CLOUDY    36  35  97 SE5       30.21S FOG
WARRENSBURG    CLOUDY    36  34  93 E3        30.22R FOG
OSAGE BEACH    CLOUDY    37  34  87 SE3       30.23S

$$
MOZ051-052-059>065-200600-
...EAST CENTRAL MISSOURI...

CITY           SKY/WX    TMP DP  RH WIND       PRES   REMARKS
ST LOUIS INTL  CLOUDY    36  28  73 E7        30.27S
SPIRIT OF STL  CLOUDY    35  28  75 CALM      30.26S
ST CHARLES     CLOUDY    34  29  82 E5        30.27S WCI  30

$$
MOZ072>076-082>087-097>100-106>115-200600-
...SOUTH CENTRAL AND SOUTHEAST MISSOURI...

CITY           SKY/WX    TMP DP  RH WIND       PRES   REMARKS
CAPE GIRARDEAU CLOUDY    35  31  85 E6        30.27S
FARMINGTON     CLOUDY    34  32  93 CALM      30.26S
POPLAR BLUFF   CLOUDY    36  32  85 N5        30.26S
WEST PLAINS    CLOUDY    35  31  85 SE5       30.23R

$$


USA.gov is the U.S. government's official web portal to all federal, state and local government web resources and services.